Regional Weather Roundup
Issued by NWS Charleston, WV

Home | Current Version | Previous Version | Graphics & Text | Print | Product List | Glossary On
Versions: 1 2 3 4 5 6 7 8 9 10 11 12 13 14 15 16 17 18 19 20 21 22 23 24 25 26 27 28 29 30 31 32 33 34 35 36 37 38 39 40 41 42 43 44 45 46 47 48 49 50
000
ASUS41 KRLX 021310
RWRRLX
West Virginia Regional Weather Roundup
National Weather Service Charleston WV
900 AM EDT WED SEP 02 2015

Note: "fair" indicates few or no clouds below 12,000 feet with no
significant weather and/or obstructions to visibility.

WVZ003-021400-
Northern Panhandle of West Virginia

CITY           SKY/WX    TMP DP  RH WIND       PRES   REMARKS
WHEELING       CLOUDY    71  68  90 S6        30.13S FOG
$$

WVZ009-021400-
Northwest West Virginia

CITY           SKY/WX    TMP DP  RH WIND       PRES   REMARKS
PARKERSBURG    SUNNY     73  68  84 S3        30.16S
$$

WVZ006-021400-
Western West Virginia

CITY           SKY/WX    TMP DP  RH WIND       PRES   REMARKS
HUNTINGTON     SUNNY     69  68  96 S3        30.15R FOG
$$

WVZ015-021400-
West Central West Virginia

CITY           SKY/WX    TMP DP  RH WIND       PRES   REMARKS
CHARLESTON     MOSUNNY   68  67  96 CALM      30.15R
$$

WVZ022-031-021400-
North Central West Virginia

CITY           SKY/WX    TMP DP  RH WIND       PRES   REMARKS
CLARKSBURG     MOSUNNY   73  68  84 S5        30.15R
MORGANTOWN     PTSUNNY   74  65  73 VRB3      30.15S
$$

WVZ025-035-042-045-021400-
Southern West Virginia

CITY           SKY/WX    TMP DP  RH WIND       PRES   REMARKS
BECKLEY        SUNNY     71  64  78 CALM      30.23S
LOGAN            N/A     68  68 100 CALM      30.19R FOG
BLUEFIELD      MOSUNNY   72  63  73 W5        30.25S
LEWISBURG      FOG       64  62  94 CALM      30.22S VSB<1/4
$$

WVZ047-021400-
Northern Mountains of West Virginia

CITY           SKY/WX    TMP DP  RH WIND       PRES   REMARKS
ELKINS         SUNNY     70  64  81 CALM      30.20S
$$

WVZ052-021400-
Eastern Panhandle of West Virginia

CITY           SKY/WX    TMP DP  RH WIND       PRES   REMARKS
MARTINSBURG    PTSUNNY   73  66  78 CALM      30.09S HAZE
PETERSBURG     PTSUNNY   70  67  92 CALM      30.14S FOG
$$


USA.gov is the U.S. government's official web portal to all federal, state and local government web resources and services.